Weather History for KDXR - April, 2014

Change the Weather History Date:

Saturday, April 26, 2014

  Actual Average Record
Temperature  
Mean Temperature 50 °F -  
Max Temperature 62 °F 61 °F 80 °F (1957)
Min Temperature 41 °F 40 °F 28 °F (1963)
Degree Days  
Heating Degree Days 14    
Moisture  
Dew Point 41 °F    
Average Humidity 81    
Maximum Humidity 93    
Minimum Humidity 42    
Precipitation  
Precipitation 0.81 in - - ()
Sea Level Pressure  
Sea Level Pressure 29.79 in    
Wind  
Wind Speed 4 mph (NNE)    
Max Wind Speed 10 mph    
Max Gust Speed -    
Visibility 7 miles    
Events Rain    
Averages and records for this station are not official NWS values.
T = Trace of Precipitation, MM = Missing Value Source: NWS Daily Summary

Daily Weather History Graph

Daily Weather History Graph

Search for Another Location

Airport or City:

Trip Planner

Search our weather history database for the weather conditions in past years. The results will help you decide how hot, cold, wet, or windy it might be!

Date:

Astronomy

Apr. 26, 2014 Rise Set
Actual Time 5:58 AM EDT 7:46 PM EDT
Civil Twilight 5:28 AM EDT 8:15 PM EDT
Nautical Twilight 4:52 AM EDT 8:51 PM EDT
Astronomical Twilight 4:13 AM EDT 9:30 PM EDT
Moon 4:22 AM EDT 5:09 PM EDT
Length of Visible Light 14h 47m
Length of Day
13h 48m
Waning Crescent, 8% of the Moon is Illuminated
Apr 26
Waning Crescent
Apr 29
New
May 6
First Quarter
May 14
Full
May 21
Last Quarter

Hourly Weather History & Observations

Time (EDT) Temp. Windchill Dew Point Humidity Pressure Visibility Wind Dir Wind Speed Gust Speed Precip Events Conditions
12:53 AM 45.0 °F 42.6 °F 35.1 °F 68% 29.79 in 10.0 mi East 4.6 mph - 0.00 in Rain Light Rain
1:53 AM 45.0 °F 41.8 °F 36.0 °F 71% 29.76 in 10.0 mi ENE 5.8 mph - 0.00 in Rain Light Rain
2:53 AM 44.1 °F 42.5 °F 37.9 °F 79% 29.75 in 4.0 mi NNE 3.5 mph - 0.05 in Rain Rain
3:53 AM 42.1 °F 38.4 °F 39.9 °F 92% 29.77 in 3.0 mi East 5.8 mph - 0.17 in Rain Rain
4:53 AM 42.1 °F 40.2 °F 37.9 °F 85% 29.75 in 4.0 mi NE 3.5 mph - 0.16 in Rain Rain
5:39 AM 41.0 °F 38.0 °F 39.0 °F 93% 29.75 in 4.0 mi NE 4.6 mph - 0.08 in Rain Rain
5:50 AM 41.0 °F 39.0 °F 39.2 °F 93% 29.75 in 5.0 mi North 3.5 mph - 0.09 in Rain Light Rain
5:53 AM 42.1 °F 39.2 °F 39.0 °F 89% 29.75 in 5.0 mi NNE 4.6 mph - 0.09 in Rain Light Rain
6:53 AM 42.1 °F 40.2 °F 39.0 °F 89% 29.77 in 3.0 mi NE 3.5 mph - 0.04 in Rain Light Rain
7:03 AM 41.0 °F 39.0 °F 39.0 °F 93% 29.77 in 2.5 mi North 3.5 mph - 0.01 in Rain Light Rain
7:13 AM 41.0 °F - 39.0 °F 93% 29.78 in 1.2 mi Calm Calm - 0.03 in Rain Rain
7:42 AM 42.1 °F - 39.0 °F 89% 29.78 in 2.5 mi Calm Calm - 0.06 in Rain Light Rain
7:49 AM 42.8 °F 41.1 °F 39.2 °F 87% 29.78 in 4.0 mi North 3.5 mph - 0.06 in Rain Light Rain
7:53 AM 42.1 °F 39.2 °F 39.9 °F 92% 29.79 in 3.0 mi North 4.6 mph - 0.06 in Rain Light Rain
8:07 AM 42.1 °F 40.2 °F 39.9 °F 92% 29.78 in 2.0 mi NE 3.5 mph - 0.01 in Rain Light Rain
8:20 AM 42.1 °F 40.2 °F 39.9 °F 92% 29.78 in 4.0 mi NNE 3.5 mph - 0.01 in   Overcast
8:53 AM 42.1 °F 40.2 °F 39.9 °F 92% 29.78 in 5.0 mi NNE 3.5 mph - 0.01 in   Overcast
9:53 AM 44.1 °F - 41.0 °F 89% 29.79 in 7.0 mi Calm Calm - N/A   Overcast
10:53 AM 46.9 °F - 42.1 °F 83% 29.80 in 10.0 mi NW 6.9 mph - N/A   Overcast
11:17 AM 48.0 °F - 42.1 °F 80% 29.79 in 10.0 mi NNW 8.1 mph - N/A   Overcast
11:25 AM 48.0 °F - 43.0 °F 83% 29.79 in 10.0 mi North 5.8 mph - N/A   Overcast
11:45 AM 50.0 °F - 43.0 °F 77% 29.79 in 10.0 mi North 6.9 mph - N/A   Overcast
11:53 AM 51.1 °F - 43.0 °F 74% 29.78 in 10.0 mi NNW 6.9 mph - N/A   Overcast
12:53 PM 53.1 °F - 43.0 °F 69% 29.78 in 10.0 mi Variable 5.8 mph - N/A   Overcast
1:16 PM 55.9 °F - 43.0 °F 62% 29.77 in 10.0 mi Calm Calm - N/A   Mostly Cloudy
1:23 PM 55.0 °F - 41.0 °F 59% 29.77 in 10.0 mi Variable 5.8 mph - N/A   Mostly Cloudy
1:53 PM 57.9 °F - 41.0 °F 53% 29.76 in 10.0 mi North 10.4 mph - N/A   Mostly Cloudy
2:53 PM 59.0 °F - 39.0 °F 48% 29.75 in 10.0 mi Variable 3.5 mph - N/A   Partly Cloudy
3:53 PM 60.1 °F - 37.9 °F 44% 29.72 in 10.0 mi West 6.9 mph - N/A   Scattered Clouds
4:53 PM 60.1 °F - 37.0 °F 42% 29.72 in 10.0 mi Calm Calm - N/A   Overcast
5:53 PM 52.0 °F - 46.9 °F 83% 29.77 in 6.0 mi South 10.4 mph - 0.05 in Rain Light Rain
6:53 PM 48.9 °F - 46.0 °F 90% 29.78 in 7.0 mi SSE 8.1 mph - 0.00 in Rain Light Rain
7:25 PM 48.0 °F - 44.1 °F 86% 29.81 in 10.0 mi SE 4.6 mph - 0.00 in Rain Light Rain
7:53 PM 48.0 °F - 45.0 °F 89% 29.82 in 7.0 mi East 6.9 mph - 0.01 in Rain Light Rain
8:53 PM 48.0 °F - 44.1 °F 86% 29.83 in 9.0 mi NNW 3.5 mph - 0.05 in Rain Light Rain
9:53 PM 46.9 °F - 45.0 °F 93% 29.87 in 10.0 mi SSW 3.5 mph - 0.11 in   Overcast
10:24 PM 46.9 °F - 44.1 °F 90% 29.86 in 10.0 mi Calm Calm - 0.00 in   Overcast
10:53 PM 45.0 °F 42.6 °F 42.1 °F 90% 29.87 in 10.0 mi South 4.6 mph - 0.00 in   Overcast
11:12 PM 45.0 °F 41.2 °F 43.0 °F 93% 29.87 in 10.0 mi SE 6.9 mph - N/A   Overcast
11:42 PM 45.0 °F 43.5 °F 42.1 °F 90% 29.88 in 10.0 mi Variable 3.5 mph - 0.01 in Rain Light Rain
11:53 PM 44.1 °F - 42.1 °F 93% 29.88 in 10.0 mi Calm Calm - 0.01 in   Overcast